• In Österreich
  • Länderverzeichnis
  • Für 7 Tage
  • Wassertemperatur
  • Satellitenkarten
  • Wetterkarte
  • News
  • Widgets
  • user-avatar
    Anmelden

    Stündliche Wetter Chyzhykove

    Heute, 16 August, Donnerstag

    Zeit Temperatur Niederschläge Wind Luftdruck Luftfeuchtigkeit
    00:00 +22°C° 0 mm 1 m/S 746 mmHg 57%
    01:00 +22°C° 0 mm 1 m/S 746 mmHg 61%
    02:00 +21°C° 0 mm 1 m/S 746 mmHg 65%
    03:00 +21°C° 0 mm 1 m/S 746 mmHg 68%
    04:00 +20°C° 0 mm 1 m/S 746 mmHg 72%
    05:00 +20°C° 0 mm 1 m/S 746 mmHg 75%
    06:00 +20°C° 0 mm 2 m/S 747 mmHg 73%
    07:00 +23°C° 0 mm 2 m/S 747 mmHg 70%
    08:00 +25°C° 0 mm 3 m/S 747 mmHg 68%
    09:00 +26°C° 0 mm 3 m/S 747 mmHg 63%
    10:00 +28°C° 0 mm 3 m/S 747 mmHg 58%
    11:00 +29°C° 0 mm 3 m/S 748 mmHg 53%
    12:00 +30°C° 0 mm 3 m/S 748 mmHg 51%
    13:00 +30°C° 0 mm 2 m/S 748 mmHg 49%
    14:00 +31°C° 0 mm 2 m/S 747 mmHg 46%
    15:00 +30°C° 0 mm 2 m/S 747 mmHg 48%
    16:00 +30°C° 0 mm 2 m/S 747 mmHg 51%
    17:00 +30°C° 0 mm 2 m/S 747 mmHg 53%
    18:00 +28°C° 0 mm 2 m/S 747 mmHg 58%
    19:00 +26°C° 0 mm 2 m/S 748 mmHg 63%
    20:00 +24°C° 0 mm 2 m/S 748 mmHg 68%
    21:00 +23°C° 0 mm 2 m/S 748 mmHg 71%
    22:00 +21°C° 0 mm 2 m/S 748 mmHg 73%
    23:00 +20°C° 0 mm 2 m/S 748 mmHg 76%

    Morgen, 17 August, Freitag

    Zeit Temperatur Niederschläge Wind Luftdruck Luftfeuchtigkeit
    00:00 +20°C° 0,1 mm 2 m/S 748 mmHg 78%
    01:00 +20°C° 0,1 mm 2 m/S 748 mmHg 80%
    02:00 +19°C° 0,1 mm 2 m/S 748 mmHg 83%
    03:00 +19°C° 0,2 mm 2 m/S 748 mmHg 84%
    04:00 +19°C° 0,2 mm 2 m/S 748 mmHg 85%
    05:00 +18°C° 0,2 mm 2 m/S 748 mmHg 87%
    06:00 +20°C° 0 mm 2 m/S 748 mmHg 81%
    07:00 +23°C° 0 mm 2 m/S 748 mmHg 76%
    08:00 +25°C° 0 mm 2 m/S 748 mmHg 70%
    09:00 +26°C° 0 mm 2 m/S 748 mmHg 65%
    10:00 +27°C° 0 mm 2 m/S 748 mmHg 60%
    11:00 +28°C° 0 mm 2 m/S 748 mmHg 54%
    12:00 +29°C° 0 mm 2 m/S 748 mmHg 52%
    13:00 +29°C° 0 mm 2 m/S 748 mmHg 50%
    14:00 +30°C° 0 mm 1 m/S 748 mmHg 47%
    15:00 +29°C° 0 mm 1 m/S 748 mmHg 50%
    16:00 +29°C° 0 mm 2 m/S 747 mmHg 52%
    17:00 +29°C° 0 mm 2 m/S 747 mmHg 55%
    18:00 +27°C° 0 mm 2 m/S 747 mmHg 59%
    19:00 +25°C° 0 mm 2 m/S 747 mmHg 64%
    20:00 +24°C° 0 mm 2 m/S 748 mmHg 68%
    21:00 +23°C° 0 mm 2 m/S 748 mmHg 72%
    22:00 +21°C° 0 mm 2 m/S 748 mmHg 75%
    23:00 +21°C° 0 mm 3 m/S 748 mmHg 79%

    übermorgen, 18 August, Samstag

    Zeit Temperatur Niederschläge Wind Luftdruck Luftfeuchtigkeit
    00:00 +20°C° 0,1 mm 3 m/S 748 mmHg 82%
    01:00 +20°C° 0,1 mm 3 m/S 748 mmHg 85%
    02:00 +19°C° 0,1 mm 3 m/S 748 mmHg 88%
    03:00 +19°C° 0,1 mm 3 m/S 748 mmHg 90%
    04:00 +18°C° 0,1 mm 2 m/S 748 mmHg 92%
    05:00 +18°C° 0,1 mm 2 m/S 748 mmHg 94%
    06:00 +19°C° 0 mm 3 m/S 748 mmHg 89%
    07:00 +21°C° 0 mm 3 m/S 748 mmHg 83%
    08:00 +22°C° 0 mm 3 m/S 748 mmHg 78%
    09:00 +25°C° 0,4 mm 3 m/S 748 mmHg 73%
    10:00 +26°C° 0,4 mm 3 m/S 748 mmHg 67%
    11:00 +28°C° 0,4 mm 3 m/S 748 mmHg 62%
    12:00 +28°C° 0,2 mm 3 m/S 748 mmHg 59%
    13:00 +29°C° 0,2 mm 3 m/S 748 mmHg 55%
    14:00 +29°C° 0,2 mm 3 m/S 748 mmHg 52%
    15:00 +29°C° 0,4 mm 3 m/S 748 mmHg 56%
    16:00 +28°C° 0,4 mm 3 m/S 748 mmHg 59%
    17:00 +28°C° 0,4 mm 2 m/S 748 mmHg 63%
    18:00 +26°C° 0,3 mm 3 m/S 748 mmHg 68%
    19:00 +25°C° 0,3 mm 3 m/S 748 mmHg 73%
    20:00 +22°C° 0,3 mm 3 m/S 748 mmHg 78%
    21:00 +21°C° 1,3 mm 3 m/S 748 mmHg 80%
    22:00 +20°C° 1,3 mm 3 m/S 748 mmHg 82%
    23:00 +20°C° 1,3 mm 4 m/S 748 mmHg 83%

    19 August, Sonntag

    Zeit Temperatur Niederschläge Wind Luftdruck Luftfeuchtigkeit
    00:00 +19°C° 0,4 mm 3 m/S 749 mmHg 83%
    01:00 +19°C° 0,4 mm 3 m/S 749 mmHg 83%
    02:00 +18°C° 0,4 mm 3 m/S 749 mmHg 83%
    03:00 +18°C° 0 mm 3 m/S 749 mmHg 82%
    04:00 +18°C° 0 mm 3 m/S 749 mmHg 82%
    05:00 +17°C° 0 mm 3 m/S 749 mmHg 82%
    06:00 +18°C° 0 mm 3 m/S 749 mmHg 79%
    07:00 +19°C° 0 mm 3 m/S 749 mmHg 75%
    08:00 +19°C° 0 mm 3 m/S 749 mmHg 72%
    09:00 +21°C° 0 mm 4 m/S 749 mmHg 68%
    10:00 +22°C° 0 mm 4 m/S 749 mmHg 63%
    11:00 +25°C° 0 mm 4 m/S 749 mmHg 59%
    12:00 +26°C° 0 mm 4 m/S 749 mmHg 56%
    13:00 +27°C° 0 mm 3 m/S 749 mmHg 53%
    14:00 +27°C° 0 mm 3 m/S 749 mmHg 50%
    15:00 +27°C° 0 mm 3 m/S 749 mmHg 52%
    16:00 +27°C° 0 mm 2 m/S 749 mmHg 54%
    17:00 +27°C° 0 mm 2 m/S 748 mmHg 56%
    18:00 +25°C° 0 mm 2 m/S 748 mmHg 58%
    19:00 +24°C° 0 mm 2 m/S 749 mmHg 60%
    20:00 +21°C° 0 mm 2 m/S 749 mmHg 62%
    21:00 +20°C° 0,1 mm 2 m/S 749 mmHg 61%
    22:00 +20°C° 0,1 mm 2 m/S 748 mmHg 61%
    23:00 +19°C° 0,1 mm 2 m/S 748 mmHg 60%

    20 August, Montag

    Zeit Temperatur Niederschläge Wind Luftdruck Luftfeuchtigkeit
    00:00 +19°C° 0,2 mm 2 m/S 748 mmHg 62%
    01:00 +18°C° 0,2 mm 2 m/S 748 mmHg 63%
    02:00 +18°C° 0,2 mm 2 m/S 748 mmHg 65%
    03:00 +18°C° 0 mm 2 m/S 748 mmHg 64%
    04:00 +18°C° 0 mm 2 m/S 748 mmHg 64%
    05:00 +17°C° 0 mm 2 m/S 748 mmHg 63%
    06:00 +19°C° 0 mm 2 m/S 748 mmHg 61%
    07:00 +20°C° 0 mm 2 m/S 749 mmHg 58%
    08:00 +21°C° 0 mm 2 m/S 749 mmHg 56%
    09:00 +24°C° 0 mm 2 m/S 749 mmHg 52%
    10:00 +26°C° 0 mm 2 m/S 749 mmHg 48%
    11:00 +27°C° 0 mm 2 m/S 749 mmHg 44%
    12:00 +28°C° 0 mm 2 m/S 749 mmHg 43%
    13:00 +29°C° 0 mm 2 m/S 749 mmHg 42%
    14:00 +29°C° 0 mm 2 m/S 748 mmHg 42%
    15:00 +29°C° 0 mm 2 m/S 748 mmHg 45%
    16:00 +29°C° 0 mm 2 m/S 748 mmHg 48%
    17:00 +28°C° 0 mm 2 m/S 748 mmHg 52%
    18:00 +27°C° 0,1 mm 1 m/S 748 mmHg 57%
    19:00 +25°C° 0,1 mm 1 m/S 748 mmHg 63%
    20:00 +23°C° 0,1 mm 1 m/S 748 mmHg 69%
    21:00 +22°C° 0,1 mm 1 m/S 748 mmHg 72%
    22:00 +21°C° 0,1 mm 1 m/S 748 mmHg 76%
    23:00 +21°C° 0,1 mm 1 m/S 748 mmHg 80%

    21 August, Dienstag

    Zeit Temperatur Niederschläge Wind Luftdruck Luftfeuchtigkeit
    00:00 +21°C° 0,3 mm 1 m/S 748 mmHg 82%
    01:00 +20°C° 0,3 mm 1 m/S 748 mmHg 84%
    02:00 +20°C° 0,3 mm 1 m/S 748 mmHg 86%
    03:00 +20°C° 0 mm 1 m/S 748 mmHg 88%
    04:00 +19°C° 0 mm 1 m/S 749 mmHg 89%
    05:00 +19°C° 0 mm 1 m/S 749 mmHg 91%
    06:00 +21°C° 0 mm 1 m/S 749 mmHg 86%
    07:00 +22°C° 0 mm 1 m/S 749 mmHg 81%
    08:00 +24°C° 0 mm 1 m/S 749 mmHg 76%
    09:00 +25°C° 0 mm 2 m/S 749 mmHg 70%
    10:00 +26°C° 0 mm 2 m/S 749 mmHg 63%
    11:00 +27°C° 0 mm 2 m/S 749 mmHg 57%
    12:00 +28°C° 0 mm 2 m/S 749 mmHg 55%
    13:00 +28°C° 0 mm 2 m/S 749 mmHg 53%
    14:00 +28°C° 0 mm 2 m/S 749 mmHg 51%
    15:00 +28°C° 0 mm 2 m/S 749 mmHg 53%
    16:00 +28°C° 0 mm 2 m/S 749 mmHg 54%
    17:00 +28°C° 0 mm 2 m/S 749 mmHg 56%
    18:00 +26°C° 0 mm 1 m/S 749 mmHg 60%
    19:00 +24°C° 0 mm 1 m/S 749 mmHg 65%
    20:00 +23°C° 0 mm 1 m/S 749 mmHg 69%
    21:00 +22°C° 0 mm 1 m/S 749 mmHg 71%
    22:00 +22°C° 0 mm 1 m/S 749 mmHg 73%
    23:00 +21°C° 0 mm 1 m/S 749 mmHg 75%
    Mehr zeigen